EW3897 Weather Reports


time (UTC)temp
C
wind
direction
speed
KPH
gust
KPH
rain 1hr
cm
rain 24hr
cm
rain mn
cm
humidity
%
barometer
mb
20260906113044 20 0 0.0 0.0 0.00 0.69 0.03 94 1013.4
20260906113034 20 129 0.0 0.0 0.00 0.69 0.03 94 1011.3
20260906111547 20 0 0.0 0.0 0.00 0.69 0.03 94 1013.3
20260906111532 20 129 0.0 0.0 0.00 0.69 0.03 94 1011.2
20260906110130 20 129 0.0 0.0 0.00 0.69 0.03 95 1010.9
20260906110045 20 0 0.0 0.0 0.00 0.69 0.03 94 1013.0
20260906104547 20 129 0.0 0.0 0.00 0.69 0.03 95 1010.8
20260906104543 20 0 0.0 0.0 0.00 0.69 0.03 94 1012.8
20260906103049 20 128 0.0 0.0 0.00 0.69 0.03 94 1010.6
20260906103043 20 0 0.0 0.0 0.00 0.69 0.03 94 1012.7
20260906101546 20 128 0.0 0.0 0.00 0.69 0.03 94 1010.7
20260906100146 20 151 0.0 0.0 0.00 0.69 0.03 94 1010.6
20260906100045 21 0 0.0 0.0 0.00 0.69 0.03 93 1012.6
20260906094605 21 0 0.0 0.0 0.00 0.69 0.03 93 1012.4
20260906094543 21 151 0.0 0.0 0.00 0.69 0.03 94 1010.4
20260906093047 21 0 0.0 0.0 0.00 0.69 0.03 93 1012.3
20260906091555 21 153 0.0 0.0 0.00 0.69 0.03 92 1010.2
20260906091546 21 0 0.0 0.0 0.00 0.69 0.03 92 1012.3
20260906090138 21 154 0.0 0.0 0.00 0.69 0.03 92 1010.2
20260906090045 21 0 0.0 0.0 0.00 0.69 0.03 91 1012.3
20260906084546 21 0 0.0 0.0 0.00 0.69 0.03 90 1012.5
20260906084535 21 154 0.0 0.0 0.00 0.69 0.03 91 1010.4
20260906083044 22 0 0.0 0.0 0.00 0.69 0.03 90 1012.6
20260906083036 22 92 0.0 0.0 0.00 0.69 0.03 90 1010.6
20260906081552 22 0 0.0 3.2 0.00 0.69 0.03 88 1012.7
20260906081532 22 293 0.0 1.6 0.00 0.69 0.03 88 1010.6
20260906080132 23 200 0.0 3.2 0.00 0.69 0.03 87 1010.8
20260906080050 23 0 0.0 3.2 0.00 0.69 0.03 87 1012.9
20260906074550 23 135 0.0 9.7 0.03 0.69 0.03 84 1010.7
20260906074543 23 134 0.0 9.7 0.03 0.69 0.03 84 1012.8
20260906073045 23 285 0.0 3.2 0.03 0.69 0.03 92 1010.8
20260906071545 23 0 0.0 8.0 0.03 0.69 0.03 93 1012.8
20260906070143 23 203 0.0 1.6 0.03 0.69 0.03 95 1010.9
20260906070044 23 0 0.0 1.6 0.03 0.69 0.03 95 1013.0
20260906064542 23 0 0.0 1.6 0.00 0.66 0.00 95 1012.6
20260906063040 22 330 0.0 0.0 0.00 0.66 0.00 95 1012.7
20260906061547 22 0 0.0 0.0 0.00 0.66 0.00 94 1012.7
20260906061538 22 305 0.0 0.0 0.00 0.66 0.00 95 1010.6
20260906060137 22 305 0.0 0.0 0.00 0.66 0.00 95 1010.8
20260906060047 22 0 0.0 0.0 0.00 0.66 0.00 95 1012.8
20260906054543 22 0 0.0 0.0 0.00 0.66 0.00 94 1012.9
20260906054540 22 305 0.0 0.0 0.00 0.66 0.00 95 1010.8
20260906053044 22 0 0.0 0.0 0.00 0.66 0.00 94 1013.0
20260906053033 22 306 0.0 0.0 0.00 0.66 0.00 95 1010.9
20260906051542 22 0 0.0 0.0 0.00 0.66 0.00 94 1013.2
20260906051531 22 306 0.0 0.0 0.00 0.66 0.00 95 1011.1
20260906050129 22 307 0.0 0.0 0.00 0.66 0.00 95 1010.9
20260906050042 22 0 0.0 0.0 0.00 0.66 0.00 94 1012.9
20260906044554 22 307 0.0 0.0 0.00 0.66 0.00 95 1011.1
20260906044543 22 0 0.0 0.0 0.00 0.66 0.00 94 1013.2
20260906043059 22 307 0.0 0.0 0.00 0.66 0.00 95 1011.3
20260906043044 22 0 0.0 0.0 0.00 0.66 0.00 94 1013.4
20260906041552 22 306 0.0 0.0 0.00 0.66 0.00 95 1011.6
20260906041547 22 0 0.0 0.0 0.00 0.66 0.00 94 1013.6
20260906040144 22 307 0.0 0.0 0.00 0.66 0.00 95 1011.4
20260906040050 22 0 0.0 0.0 0.00 0.66 0.00 94 1013.6
20260906034548 22 0 0.0 0.0 0.00 0.66 0.66 94 1013.5
20260906034535 22 304 0.0 0.0 0.00 0.66 0.66 94 1011.5
20260906033044 22 304 0.0 0.0 0.00 0.66 0.66 95 1011.5
20260906033039 22 0 0.0 0.0 0.00 0.66 0.66 94 1013.5
20260906031549 22 0 0.0 0.0 0.00 0.66 0.66 94 1013.3
20260906031536 22 304 0.0 0.0 0.00 0.66 0.66 94 1011.2
20260906030133 22 303 0.0 0.0 0.00 0.66 0.66 94 1011.4
20260906030043 22 0 0.0 0.0 0.00 0.66 0.66 94 1013.5
20260906024550 22 304 0.0 0.0 0.00 0.66 0.66 94 1010.9
20260906024537 22 0 0.0 0.0 0.00 0.66 0.66 94 1013.1
20260906023053 22 304 0.0 0.0 0.00 0.66 0.66 94 1011.0
20260906023049 22 0 0.0 0.0 0.00 0.66 0.66 94 1013.0
20260906021552 22 0 0.0 0.0 0.00 0.66 0.66 93 1012.8
20260906021547 22 304 0.0 0.0 0.00 0.66 0.66 94 1010.7
20260906020149 22 303 0.0 0.0 0.00 0.66 0.66 94 1010.6
20260906020053 22 0 0.0 0.0 0.00 0.66 0.66 93 1012.6
20260906014550 23 0 0.0 0.0 0.00 0.66 0.66 93 1012.6
20260906013058 23 303 0.0 0.0 0.00 0.66 0.66 93 1010.4
20260906013041 23 0 0.0 0.0 0.00 0.66 0.66 93 1012.6
20260906011600 23 303 0.0 0.0 0.00 0.66 0.66 93 1010.5
20260906011543 23 0 0.0 0.0 0.00 0.66 0.66 93 1012.6
20260906010149 23 304 0.0 0.0 0.00 0.66 0.66 92 1010.4
20260906010042 23 0 0.0 0.0 0.00 0.66 0.66 92 1012.6
20260906004542 23 0 0.0 0.0 0.00 0.66 0.66 91 1012.6
20260906004530 23 303 0.0 0.0 0.00 0.66 0.66 92 1010.5
20260906003045 23 0 0.0 0.0 0.00 0.66 0.66 91 1012.5
20260906003031 23 304 0.0 0.0 0.00 0.66 0.66 91 1010.4
20260906001541 24 0 0.0 0.0 0.00 0.66 0.66 89 1012.5
20260906001530 24 303 0.0 0.0 0.00 0.66 0.66 90 1010.3
20260906000130 25 303 0.0 0.0 0.00 0.66 0.66 88 1010.5
20260906000040 25 0 0.0 0.0 0.00 0.66 0.66 87 1012.7
20260905234549 26 302 0.0 0.0 0.00 0.69 0.66 84 1010.3
20260905234545 26 0 0.0 0.0 0.00 0.69 0.66 84 1012.5
20260905233045 27 302 0.0 0.0 0.00 0.69 0.66 82 1010.3
20260905231543 27 307 0.0 0.0 0.00 0.69 0.66 80 1010.2
20260905230143 28 307 0.0 0.0 0.00 0.69 0.66 77 1010.1
20260905230040 28 0 0.0 0.0 0.00 0.69 0.66 76 1012.4
20260905224554 28 307 0.0 1.6 0.00 0.69 0.66 76 1010.0
20260905224539 28 0 0.0 1.6 0.00 0.69 0.66 75 1012.2
20260905223050 27 235 0.0 0.0 0.00 0.69 0.66 79 1010.1
20260905223045 27 0 0.0 0.0 0.00 0.69 0.66 78 1012.2
20260905221549 27 309 0.0 0.0 0.00 0.69 0.66 79 1010.1
20260905221547 27 0 0.0 0.0 0.00 0.69 0.66 79 1012.3
20260905220147 27 309 0.0 0.0 0.00 0.69 0.66 73 1010.3
20260905220040 27 0 0.0 3.2 0.00 0.69 0.66 73 1012.5
20260905214542 27 0 0.0 0.0 0.00 0.69 0.66 74 1012.7
20260905214537 27 315 0.0 0.0 0.00 0.69 0.66 74 1010.4
20260905213042 27 0 0.0 1.6 0.00 0.69 0.66 78 1012.7
20260905213039 27 279 0.0 0.0 0.00 0.69 0.66 79 1010.3
20260905211547 25 0 0.0 3.2 0.00 0.69 0.66 84 1012.8
20260905211541 25 296 0.0 3.2 0.00 0.69 0.66 85 1010.6
20260905210132 25 300 0.0 1.6 0.00 0.69 0.66 88 1010.9
20260905210100 25 0 0.0 1.6 0.00 0.69 0.66 87 1013.2
20260905204547 25 231 0.0 0.0 0.00 0.69 0.66 88 1011.1
20260905204542 25 0 0.0 0.0 0.00 0.69 0.66 87 1013.4
20260905203044 25 239 0.0 0.0 0.00 0.69 0.66 89 1011.0
20260905201544 25 0 0.0 0.0 0.00 0.69 0.66 89 1013.4
20260905200143 24 148 0.0 0.0 0.00 0.69 0.66 89 1011.5
20260905200057 24 0 0.0 0.0 0.00 0.69 0.66 88 1013.8
20260905194542 24 148 0.0 0.0 0.00 0.69 0.66 88 1011.6
20260905193044 23 0 0.0 0.0 0.00 0.69 0.66 89 1014.0
20260905193042 24 148 0.0 0.0 0.00 0.69 0.66 89 1011.6
20260905191544 24 0 0.0 4.8 0.10 0.69 0.66 85 1013.8
20260905191542 24 255 0.0 4.8 0.10 0.69 0.66 86 1011.5
20260905190142 24 298 0.0 3.2 0.61 0.69 0.66 86 1011.9
20260905190044 24 0 0.0 6.4 0.61 0.69 0.66 85 1014.3
20260905184553 24 177 0.0 6.4 0.66 0.69 0.66 86 1012.7
20260905184545 24 0 0.0 6.4 0.66 0.69 0.66 86 1015.1
20260905183043 24 186 0.0 1.6 0.66 0.69 0.66 89 1012.4
20260905183040 24 0 0.0 1.6 0.66 0.69 0.66 89 1014.8
20260905181543 25 271 1.6 3.2 0.53 0.56 0.53 84 1012.5
20260905181539 25 289 0.0 12.9 0.53 0.56 0.53 84 1014.9
20260905180133 28 78 3.2 16.1 0.05 0.08 0.05 70 1012.9
20260905180044 29 288 3.2 16.1 0.03 0.05 0.03 68 1015.2
20260905174553 32 335 0.0 3.2 0.00 0.03 0.00 57 1011.5
20260905174538 32 340 1.6 3.2 0.00 0.03 0.00 57 1013.9
20260905173052 31 298 0.0 4.8 0.00 0.03 0.00 60 1011.5
20260905173044 31 298 0.0 4.8 0.00 0.03 0.00 60 1013.9
20260905171556 32 297 1.6 6.4 0.00 0.03 0.00 61 1014.0
20260905171549 31 297 1.6 6.4 0.00 0.03 0.00 59 1011.7
20260905170149 32 293 0.0 4.8 0.00 0.03 0.00 58 1011.9
20260905170043 32 304 0.0 3.2 0.00 0.03 0.00 56 1014.4
20260905164548 31 299 0.0 6.4 0.00 0.03 0.00 61 1012.3
20260905164541 31 309 1.6 6.4 0.00 0.03 0.00 61 1014.7
20260905163046 30 300 1.6 4.8 0.00 0.03 0.00 71 1012.5
20260905161542 29 328 0.0 4.8 0.00 0.03 0.00 74 1012.5
20260905160139 28 301 1.6 4.8 0.00 0.03 0.00 77 1012.5
20260905160048 28 312 1.6 4.8 0.00 0.03 0.00 77 1014.9
20260905154554 28 300 1.6 4.8 0.00 0.03 0.00 77 1012.6
20260905153040 28 0 0.0 3.2 0.00 0.03 0.00 77 1015.0
20260905153033 28 293 0.0 3.2 0.00 0.03 0.00 78 1012.7
20260905151540 28 313 0.0 3.2 0.00 0.03 0.00 77 1015.2
20260905151531 28 302 0.0 3.2 0.00 0.03 0.00 78 1012.9
20260905150130 27 290 0.0 1.6 0.00 0.03 0.00 79 1012.8
20260905150040 27 0 0.0 1.6 0.00 0.03 0.00 78 1015.2
20260905144552 28 48 0.0 0.0 0.00 0.03 0.00 78 1013.1
20260905144549 28 0 0.0 0.0 0.00 0.03 0.00 78 1015.4
20260905143049 27 65 0.0 0.0 0.00 0.03 0.00 80 1013.1
20260905143038 27 0 0.0 0.0 0.00 0.03 0.00 80 1015.3
20260905141546 27 108 0.0 1.6 0.00 0.03 0.00 80 1013.1
20260905141543 27 0 0.0 1.6 0.00 0.03 0.00 81 1015.4
20260905140144 26 306 0.0 1.6 0.00 0.03 0.00 84 1013.1
20260905140044 26 0 0.0 1.6 0.00 0.03 0.00 84 1015.4
20260905134549 26 0 0.0 0.0 0.00 0.03 0.00 85 1015.4
20260905134544 26 100 0.0 0.0 0.00 0.03 0.00 86 1013.1
20260905133048 25 320 0.0 1.6 0.00 0.03 0.00 88 1013.4
20260905133043 25 0 0.0 1.6 0.00 0.03 0.00 88 1015.6
20260905131543 25 154 0.0 0.0 0.00 0.03 0.00 91 1013.4
20260905130136 25 154 0.0 0.0 0.00 0.03 0.00 92 1013.5
20260905130043 25 0 0.0 0.0 0.00 0.03 0.00 92 1015.8
20260905124549 24 0 0.0 0.0 0.00 0.03 0.00 93 1015.6
20260905124536 24 154 0.0 0.0 0.00 0.03 0.00 93 1013.4
20260905123039 23 0 0.0 0.0 0.00 0.03 0.00 93 1015.6
20260905123033 23 154 0.0 0.0 0.00 0.03 0.00 94 1013.5
20260905121542 23 0 0.0 0.0 0.00 0.03 0.00 94 1015.5
20260905121532 23 154 0.0 0.0 0.00 0.03 0.00 95 1013.3
20260905120131 22 155 0.0 0.0 0.00 0.03 0.00 94 1013.2
20260905120043 22 0 0.0 0.0 0.00 0.03 0.00 94 1015.4
20260905114552 22 226 0.0 0.0 0.00 0.03 0.00 95 1013.0
20260905114541 22 0 0.0 0.0 0.00 0.03 0.00 94 1015.3